When you browse on this site, cookies collect data to enhance your experience and personalize the content and advertising you see.
Visit our Privacy Policy to learn more. By continuing to use the site, you agree to this use of cookies and data.
  • In Hungary
  • List of Countries
  • For 7 days
  • Water Temperature
  • Satellite Maps
  • Weather Map
  • News
  • Weather Widgets
  • user-avatar
    Login

    Hourly Weather Kuenka

    Today, 12 December, Wednesday

    Time Temperature Precipitation Wind Pressure Humidity
    00:00 +12°C° 0.2 mm 1 mps 561 mmHg 89%
    01:00 +11°C° 0 mm 1 mps 561 mmHg 89%
    02:00 +11°C° 0.1 mm 1 mps 561 mmHg 88%
    03:00 +11°C° 0.1 mm 1 mps 560 mmHg 87%
    04:00 +11°C° 0.1 mm 1 mps 560 mmHg 87%
    05:00 +12°C° 0 mm 1 mps 560 mmHg 86%
    06:00 +12°C° 0 mm 1 mps 561 mmHg 85%
    07:00 +12°C° 0 mm 2 mps 561 mmHg 84%
    08:00 +14°C° 0 mm 2 mps 562 mmHg 78%
    09:00 +16°C° 0 mm 2 mps 563 mmHg 71%
    10:00 +17°C° 0 mm 2 mps 564 mmHg 64%
    11:00 +17°C° 0.1 mm 2 mps 563 mmHg 65%
    12:00 +17°C° 0.1 mm 2 mps 563 mmHg 66%
    13:00 +17°C° 0.1 mm 2 mps 563 mmHg 67%
    14:00 +17°C° 0.2 mm 2 mps 562 mmHg 68%
    15:00 +17°C° 0.2 mm 2 mps 561 mmHg 69%
    16:00 +16°C° 0.2 mm 2 mps 561 mmHg 70%
    17:00 +15°C° 0.1 mm 2 mps 561 mmHg 76%
    18:00 +14°C° 0.1 mm 1 mps 560 mmHg 82%
    19:00 +12°C° 0.1 mm 1 mps 560 mmHg 88%
    20:00 +12°C° 0.1 mm 1 mps 560 mmHg 87%
    21:00 +12°C° 0.1 mm 1 mps 560 mmHg 86%
    22:00 +12°C° 0.1 mm 1 mps 561 mmHg 84%
    23:00 +12°C° 0.2 mm 1 mps 561 mmHg 84%

    Tomorrow, 13 December, Thursday

    Time Temperature Precipitation Wind Pressure Humidity
    00:00 +11°C° 0.2 mm 1 mps 560 mmHg 83%
    01:00 +11°C° 0.2 mm 1 mps 560 mmHg 82%
    02:00 +11°C° 0.5 mm 1 mps 560 mmHg 82%
    03:00 +11°C° 0.5 mm 1 mps 560 mmHg 82%
    04:00 +11°C° 0.5 mm 1 mps 559 mmHg 82%
    05:00 +12°C° 0.5 mm 1 mps 560 mmHg 81%
    06:00 +12°C° 0.5 mm 1 mps 560 mmHg 81%
    07:00 +12°C° 0.5 mm 1 mps 561 mmHg 80%
    08:00 +14°C° 0.2 mm 1 mps 562 mmHg 77%
    09:00 +15°C° 0.2 mm 2 mps 562 mmHg 74%
    10:00 +16°C° 0.2 mm 2 mps 563 mmHg 71%
    11:00 +16°C° 0.1 mm 2 mps 563 mmHg 70%
    12:00 +17°C° 0.1 mm 2 mps 563 mmHg 69%
    13:00 +17°C° 0.1 mm 2 mps 562 mmHg 67%
    14:00 +17°C° 0.3 mm 2 mps 562 mmHg 69%
    15:00 +16°C° 0.3 mm 2 mps 561 mmHg 71%
    16:00 +16°C° 0.3 mm 2 mps 560 mmHg 73%
    17:00 +15°C° 0.3 mm 1 mps 560 mmHg 78%
    18:00 +14°C° 0.3 mm 1 mps 560 mmHg 82%
    19:00 +12°C° 0.3 mm 0 mps 560 mmHg 87%
    20:00 +13°C° 0.2 mm 1 mps 560 mmHg 86%
    21:00 +12°C° 0.2 mm 1 mps 560 mmHg 86%
    22:00 +12°C° 0.2 mm 1 mps 561 mmHg 85%
    23:00 +12°C° 0.1 mm 1 mps 560 mmHg 86%

    Day after tomorrow, 14 December, Friday

    Time Temperature Precipitation Wind Pressure Humidity
    00:00 +11°C° 0.1 mm 1 mps 560 mmHg 86%
    01:00 +11°C° 0.1 mm 1 mps 560 mmHg 86%
    02:00 +11°C° 0.3 mm 1 mps 559 mmHg 85%
    03:00 +11°C° 0.3 mm 1 mps 559 mmHg 85%
    04:00 +11°C° 0.3 mm 1 mps 559 mmHg 85%
    05:00 +11°C° 0.3 mm 1 mps 560 mmHg 84%
    06:00 +12°C° 0.3 mm 1 mps 560 mmHg 83%
    07:00 +12°C° 0.3 mm 1 mps 561 mmHg 81%
    08:00 +14°C° 0.2 mm 1 mps 562 mmHg 77%
    09:00 +15°C° 0.2 mm 1 mps 562 mmHg 73%
    10:00 +16°C° 0.2 mm 2 mps 563 mmHg 69%
    11:00 +17°C° 0.3 mm 2 mps 563 mmHg 69%
    12:00 +17°C° 0.3 mm 2 mps 563 mmHg 69%
    13:00 +17°C° 0.3 mm 2 mps 562 mmHg 69%
    14:00 +17°C° 0.9 mm 2 mps 561 mmHg 72%
    15:00 +16°C° 0.9 mm 2 mps 561 mmHg 75%
    16:00 +16°C° 0.9 mm 1 mps 560 mmHg 78%
    17:00 +15°C° 1.2 mm 1 mps 560 mmHg 82%
    18:00 +14°C° 1.2 mm 1 mps 560 mmHg 85%
    19:00 +12°C° 1.2 mm 0 mps 560 mmHg 89%
    20:00 +12°C° 0.8 mm 0 mps 560 mmHg 89%
    21:00 +12°C° 0.8 mm 0 mps 561 mmHg 88%
    22:00 +11°C° 0.8 mm 0 mps 561 mmHg 88%
    23:00 +11°C° 0.6 mm 0 mps 561 mmHg 87%

    15 December, Saturday

    Time Temperature Precipitation Wind Pressure Humidity
    00:00 +11°C° 0.6 mm 0 mps 561 mmHg 86%
    01:00 +11°C° 0.6 mm 0 mps 560 mmHg 85%
    02:00 +11°C° 0.3 mm 0 mps 560 mmHg 85%
    03:00 +11°C° 0.3 mm 0 mps 560 mmHg 84%
    04:00 +11°C° 0.3 mm 0 mps 559 mmHg 83%
    05:00 +11°C° 0.2 mm 0 mps 560 mmHg 83%
    06:00 +12°C° 0.2 mm 1 mps 560 mmHg 83%
    07:00 +12°C° 0.2 mm 1 mps 561 mmHg 82%
    08:00 +13°C° 0.2 mm 1 mps 562 mmHg 80%
    09:00 +14°C° 0.2 mm 1 mps 562 mmHg 79%
    10:00 +15°C° 0.2 mm 1 mps 563 mmHg 77%
    11:00 +15°C° 0.4 mm 1 mps 563 mmHg 76%
    12:00 +16°C° 0.4 mm 1 mps 562 mmHg 76%
    13:00 +16°C° 0.4 mm 1 mps 562 mmHg 75%
    14:00 +16°C° 0.9 mm 1 mps 561 mmHg 76%
    15:00 +16°C° 0.9 mm 1 mps 561 mmHg 77%
    16:00 +16°C° 0.9 mm 1 mps 560 mmHg 77%
    17:00 +15°C° 0.7 mm 1 mps 560 mmHg 82%
    18:00 +14°C° 0.7 mm 1 mps 560 mmHg 86%
    19:00 +12°C° 0.7 mm 0 mps 560 mmHg 90%
    20:00 +12°C° 0.6 mm 0 mps 560 mmHg 90%
    21:00 +11°C° 0.6 mm 0 mps 561 mmHg 90%
    22:00 +11°C° 0.6 mm 0 mps 561 mmHg 89%
    23:00 +11°C° 0.6 mm 0 mps 561 mmHg 90%

    16 December, Sunday

    Time Temperature Precipitation Wind Pressure Humidity
    00:00 +11°C° 0.6 mm 0 mps 561 mmHg 90%
    01:00 +12°C° 0.6 mm 1 mps 561 mmHg 90%
    02:00 +12°C° 0.7 mm 1 mps 560 mmHg 90%
    03:00 +11°C° 0.7 mm 0 mps 560 mmHg 90%
    04:00 +11°C° 0.7 mm 0 mps 560 mmHg 90%
    05:00 +11°C° 0.5 mm 0 mps 560 mmHg 90%
    06:00 +12°C° 0.5 mm 1 mps 561 mmHg 89%
    07:00 +12°C° 0.5 mm 1 mps 561 mmHg 89%
    08:00 +13°C° 0.4 mm 1 mps 562 mmHg 86%
    09:00 +14°C° 0.4 mm 1 mps 562 mmHg 82%
    10:00 +15°C° 0.4 mm 1 mps 563 mmHg 79%
    11:00 +15°C° 0.5 mm 1 mps 563 mmHg 79%
    12:00 +15°C° 0.5 mm 2 mps 562 mmHg 78%
    13:00 +16°C° 0.5 mm 2 mps 562 mmHg 78%
    14:00 +15°C° 0.9 mm 1 mps 561 mmHg 79%
    15:00 +15°C° 0.9 mm 1 mps 561 mmHg 81%
    16:00 +14°C° 0.9 mm 1 mps 560 mmHg 83%
    17:00 +14°C° 0.6 mm 1 mps 560 mmHg 85%
    18:00 +13°C° 0.6 mm 1 mps 560 mmHg 87%
    19:00 +12°C° 0.6 mm 0 mps 560 mmHg 89%
    20:00 +12°C° 0.3 mm 0 mps 561 mmHg 89%
    21:00 +11°C° 0.3 mm 0 mps 561 mmHg 88%
    22:00 +11°C° 0.3 mm 0 mps 561 mmHg 88%
    23:00 +11°C° 0.4 mm 0 mps 561 mmHg 87%

    17 December, Monday

    Time Temperature Precipitation Wind Pressure Humidity
    00:00 +11°C° 0.4 mm 0 mps 561 mmHg 87%
    01:00 +11°C° 0.4 mm 0 mps 560 mmHg 86%
    02:00 +11°C° 0.5 mm 0 mps 560 mmHg 86%
    03:00 +11°C° 0.5 mm 0 mps 560 mmHg 86%
    04:00 +11°C° 0.5 mm 0 mps 559 mmHg 86%
    05:00 +12°C° 0.3 mm 1 mps 560 mmHg 85%
    06:00 +12°C° 0.3 mm 1 mps 560 mmHg 84%
    07:00 +12°C° 0.3 mm 1 mps 561 mmHg 84%
    08:00 +14°C° 0.3 mm 1 mps 562 mmHg 79%
    09:00 +15°C° 0.3 mm 1 mps 562 mmHg 74%
    10:00 +16°C° 0.3 mm 2 mps 563 mmHg 69%
    11:00 +17°C° 0.2 mm 2 mps 562 mmHg 69%
    12:00 +17°C° 0.2 mm 2 mps 562 mmHg 68%
    13:00 +17°C° 0.2 mm 2 mps 561 mmHg 68%
    14:00 +16°C° 0.4 mm 2 mps 561 mmHg 71%
    15:00 +16°C° 0.4 mm 1 mps 560 mmHg 74%
    16:00 +15°C° 0.4 mm 1 mps 559 mmHg 77%
    17:00 +15°C° 0.8 mm 1 mps 560 mmHg 80%
    18:00 +13°C° 0.8 mm 0 mps 560 mmHg 84%
    19:00 +12°C° 0.8 mm 0 mps 560 mmHg 87%
    20:00 +12°C° 1 mm 0 mps 560 mmHg 87%
    21:00 +12°C° 1 mm 0 mps 560 mmHg 87%
    22:00 +12°C° 1 mm 0 mps 561 mmHg 87%
    23:00 +12°C° 0.8 mm 0 mps 561 mmHg 86%
    Show more